DW4273 Weather Reports


Display with metric or nautical units.
time (UTC)temp
F
wind
direction
speed
MPH
gust
MPH
rain 1hr
in
rain 24hr
in
rain mn
in
humidity
%
barometer
mb
20260510170516 57 0 4.0 12.0 0.00 0.12 0.00 49 1015.5
20260510165516 57 0 1.0 8.0 0.00 0.12 0.00 49 1015.4
20260510164516 56 270 1.0 8.0 0.00 0.12 0.00 49 1015.3
20260510163516 56 23 2.0 9.0 0.00 0.12 0.00 52 1015.2
20260510162517 56 315 3.0 8.0 0.00 0.12 0.00 52 1015.1
20260510161536 55 315 4.0 11.0 0.00 0.12 0.00 49 1014.9
20260510160516 55 23 4.0 10.0 0.00 0.12 0.00 51 1014.9
20260510155536 55 23 2.0 8.0 0.00 0.12 0.00 55 1015.0
20260510154516 54 45 1.0 6.0 0.00 0.12 0.00 55 1014.8
20260510153537 54 23 4.0 8.0 0.00 0.12 0.00 52 1014.7
20260510152517 54 0 1.0 6.0 0.00 0.12 0.00 56 1014.7
20260510151537 53 0 3.0 8.0 0.00 0.12 0.00 55 1014.8
20260510150517 53 0 5.0 12.0 0.00 0.12 0.00 58 1014.6
20260510145516 52 23 4.0 10.0 0.00 0.12 0.00 57 1014.3
20260510144517 52 68 6.0 14.0 0.00 0.12 0.00 58 1014.3
20260510143516 51 0 3.0 11.0 0.00 0.12 0.00 63 1014.1
20260510142537 51 0 4.0 10.0 0.00 0.12 0.00 62 1014.2
20260510141537 51 45 5.0 12.0 0.00 0.12 0.00 64 1014.0
20260510140517 50 0 5.0 10.0 0.00 0.12 0.00 63 1014.0
20260510135516 50 45 6.0 11.0 0.00 0.12 0.00 66 1013.9
20260510134516 50 0 1.0 5.0 0.00 0.12 0.00 70 1014.0
20260510133536 49 0 5.0 9.0 0.00 0.12 0.00 67 1013.8
20260510132516 49 45 5.0 9.0 0.00 0.12 0.00 69 1013.7
20260510131517 48 0 4.0 11.0 0.00 0.12 0.00 72 1013.4
20260510130517 48 23 5.0 9.0 0.00 0.12 0.00 75 1013.3
20260510125017 48 23 5.0 12.0 0.00 0.12 0.00 78 1013.1
20260510124017 47 23 4.0 11.0 0.00 0.12 0.00 80 1012.7
20260510123016 47 23 3.0 8.0 0.00 0.12 0.00 82 1012.6
20260510122016 47 23 2.0 7.0 0.00 0.12 0.00 83 1012.6
20260510121017 47 0 1.0 6.0 0.00 0.12 0.00 84 1012.2
20260510120017 47 0 3.0 7.0 0.00 0.12 0.00 84 1011.9
20260510115017 47 0 3.0 7.0 0.00 0.12 0.00 84 1011.9
20260510114017 48 338 3.0 8.0 0.00 0.12 0.00 85 1011.9
20260510113016 48 0 1.0 6.0 0.00 0.12 0.00 85 1011.6
20260510112016 47 0 1.0 6.0 0.00 0.12 0.00 85 1011.6
20260510111017 47 23 1.0 4.0 0.00 0.12 0.00 85 1011.4
20260510110017 47 0 2.0 7.0 0.00 0.12 0.00 85 1011.1
20260510105016 47 0.0 0.0 0.00 0.12 0.00 85 1011.0
20260510104017 47 0.0 1.0 0.00 0.12 0.00 85 1010.8
20260510103017 47 0.0 0.0 0.00 0.12 0.00 85 1010.5
20260510102037 46 0.0 0.0 0.00 0.12 0.00 85 1010.2
20260510101017 46 0.0 0.0 0.00 0.12 0.00 85 1010.2
20260510100017 46 0.0 0.0 0.00 0.12 0.00 84 1009.9
20260510095603 46 0.0 0.0 0.00 0.12 0.00 84 1009.9
20260510095017 46 0.0 0.0 0.00 0.12 0.00 84 1009.9
20260510094017 46 0.0 0.0 0.00 0.12 0.00 84 1009.9
20260510093037 46 0.0 0.0 0.00 0.12 0.00 84 1009.7
20260510092017 46 0.0 0.0 0.00 0.12 0.00 84 1009.6
20260510091017 46 0.0 0.0 0.00 0.12 0.00 84 1009.4
20260510090017 47 0.0 0.0 0.00 0.12 0.00 83 1009.0
20260510085017 47 0.0 0.0 0.00 0.12 0.00 83 1009.0
20260510084037 47 0.0 0.0 0.00 0.12 0.00 83 1008.8
20260510083017 48 0.0 0.0 0.00 0.12 0.00 82 1008.7
20260510082017 49 0.0 0.0 0.00 0.12 0.00 82 1008.6
20260510081037 49 0.0 0.0 0.00 0.12 0.00 79 1008.4
20260510080017 49 0.0 0.0 0.00 0.12 0.00 79 1008.5
20260510075017 50 0.0 0.0 0.00 0.12 0.00 79 1008.4
20260510074017 50 0.0 0.0 0.00 0.12 0.00 79 1008.4
20260510073137 50 23 1.0 6.0 0.00 0.12 0.00 78 1008.1
20260510072017 50 23 3.0 7.0 0.00 0.13 0.00 79 1008.1
20260510071017 51 45 2.0 7.0 0.00 0.13 0.00 84 1008.0
20260510070017 53 338 6.0 11.0 0.00 0.13 0.00 88 1007.7
20260510065529 54 338 2.0 5.0 0.00 0.13 0.00 87 1007.6
20260510065017 54 338 3.0 7.0 0.00 0.13 0.00 87 1007.5
20260510064017 55 315 1.0 7.0 0.00 0.15 0.00 86 1007.3
20260510063017 55 338 1.0 7.0 0.00 0.15 0.00 86 1007.1
20260510062017 56 293 2.0 7.0 0.00 0.15 0.00 87 1006.9
20260510061037 56 0.0 3.0 0.00 0.16 0.00 87 1006.7
20260510060017 56 0.0 3.0 0.00 0.16 0.00 87 1006.7
20260510055017 56 0.0 2.0 0.00 0.18 0.00 87 1006.7
20260510054057 56 248 4.0 10.0 0.00 0.20 0.00 88 1006.6
20260510053037 55 248 5.0 10.0 0.00 0.22 0.00 89 1006.4
20260510052017 55 225 5.0 10.0 0.00 0.22 0.00 90 1006.2
20260510051017 55 225 5.0 9.0 0.00 0.22 0.00 91 1006.1
20260510050017 55 225 4.0 10.0 0.00 0.24 0.00 91 1006.0
20260510045017 54 203 4.0 10.0 0.00 0.27 0.00 92 1005.8
20260510044037 54 0.0 4.0 0.00 0.28 0.00 91 1005.8
20260510043017 54 0.0 0.0 0.01 0.29 0.00 91 1005.6
20260510042017 54 0.0 1.0 0.01 0.30 0.00 90 1005.7
20260510041017 54 0.0 0.0 0.01 0.32 0.00 90 1005.6
20260510040057 54 0.0 0.0 0.01 0.33 0.33 89 1005.4
20260510035037 55 0.0 1.0 0.01 0.33 0.33 88 1005.5
20260510034017 55 203 1.0 6.0 0.01 0.34 0.33 88 1005.5
20260510033016 56 0.0 4.0 0.01 0.33 0.32 87 1005.7
20260510032016 56 225 2.0 6.0 0.01 0.33 0.32 87 1005.3
20260510031029 57 0.0 0.0 0.01 0.33 0.32 86 1005.0
20260510030017 57 158 2.0 6.0 0.01 0.33 0.32 86 1005.1
20260510025017 57 225 1.0 7.0 0.01 0.33 0.32 86 1005.5
20260510024017 57 248 1.0 5.0 0.01 0.33 0.32 86 1005.3
20260510023016 56 270 4.0 11.0 0.00 0.32 0.31 87 1005.8
20260510022017 56 248 3.0 6.0 0.00 0.33 0.31 88 1005.6
20260510021016 56 225 1.0 5.0 0.00 0.33 0.31 88 1005.2
20260510020037 56 225 1.0 4.0 0.00 0.33 0.31 88 1004.9
20260510015016 56 0.0 3.0 0.00 0.34 0.31 88 1004.6
20260510014037 56 0.0 0.0 0.00 0.35 0.31 87 1004.5
20260510013057 56 0.0 0.0 0.00 0.35 0.31 86 1004.4
20260510012017 56 0.0 0.0 0.00 0.35 0.31 85 1004.2
20260510011017 57 0.0 1.0 0.00 0.36 0.31 85 1004.0
20260510010016 57 0.0 4.0 0.00 0.36 0.31 85 1004.0
20260510005016 57 225 3.0 7.0 0.01 0.36 0.31 85 1004.0
20260510004017 57 225 5.0 8.0 0.01 0.37 0.31 84 1003.7
20260510003037 57 248 10.0 17.0 0.06 0.37 0.31 85 1003.9
20260510002016 57 248 9.0 18.0 0.10 0.37 0.31 86 1003.9
20260510001017 56 248 7.0 12.0 0.10 0.38 0.31 87 1004.0
20260510000117 56 248 5.0 11.0 0.10 0.39 0.31 87 1004.0
20260509235017 56 270 5.0 10.0 0.09 0.38 0.30 86 1004.3
20260509234017 57 270 6.0 17.0 0.09 0.39 0.30 84 1004.4
20260509233016 58 270 5.0 13.0 0.04 0.35 0.26 80 1004.0
20260509232017 61 315 9.0 19.0 0.00 0.32 0.21 74 1004.3
20260509231016 67 248 11.0 19.0 0.00 0.33 0.21 62 1003.6
20260509230017 68 225 8.0 16.0 0.00 0.35 0.21 56 1002.5
20260509225017 68 225 12.0 20.0 0.00 0.35 0.21 54 1002.3
20260509224017 69 203 13.0 22.0 0.00 0.36 0.21 53 1002.1
20260509223017 70 225 11.0 18.0 0.00 0.37 0.21 52 1002.1
20260509222017 70 225 11.0 23.0 0.00 0.37 0.21 50 1002.2
20260509221016 70 203 13.0 21.0 0.00 0.37 0.21 50 1002.2
20260509220017 70 203 12.0 20.0 0.00 0.38 0.21 51 1002.2
20260509215016 70 203 10.0 18.0 0.00 0.38 0.21 52 1002.4
20260509214017 70 203 11.0 20.0 0.00 0.38 0.21 52 1002.2
20260509213037 70 203 10.0 17.0 0.00 0.38 0.21 52 1002.2
20260509212017 70 203 11.0 27.0 0.00 0.38 0.21 53 1002.2
20260509211037 69 203 13.0 19.0 0.00 0.38 0.21 54 1002.3
20260509210017 69 203 13.0 22.0 0.00 0.38 0.21 54 1002.6
20260509205017 69 203 12.0 22.0 0.00 0.38 0.21 57 1002.8
20260509204016 69 225 13.0 20.0 0.00 0.38 0.21 54 1002.8
20260509203017 69 203 11.0 16.0 0.00 0.38 0.21 57 1002.9
20260509202017 69 203 10.0 17.0 0.00 0.38 0.21 57 1003.1
20260509201017 69 203 14.0 23.0 0.00 0.38 0.21 56 1003.2
20260509200017 68 203 12.0 21.0 0.00 0.38 0.21 57 1003.4
20260509195016 68 225 12.0 17.0 0.00 0.38 0.21 59 1003.7
20260509194017 68 203 11.0 22.0 0.00 0.39 0.21 59 1003.8
20260509193017 68 203 10.0 17.0 0.00 0.39 0.21 61 1003.7
20260509192057 68 225 12.0 19.0 0.00 0.40 0.21 59 1003.9
20260509191057 68 203 10.0 19.0 0.00 0.41 0.21 60 1003.9
20260509190017 68 203 10.0 22.0 0.00 0.41 0.21 60 1004.2
20260509185057 66 225 10.0 17.0 0.00 0.41 0.21 62 1004.2
20260509184017 66 225 9.0 17.0 0.00 0.41 0.21 62 1004.4
20260509183017 66 203 12.0 19.0 0.00 0.41 0.21 62 1004.1
20260509182017 66 203 12.0 22.0 0.00 0.41 0.21 62 1004.2
20260509180017 66 225 12.0 19.0 0.00 0.41 0.21 63 1004.2
20260509175057 66 203 11.0 19.0 0.00 0.42 0.21 62 1004.3
20260509174017 65 203 9.0 15.0 0.00 0.43 0.21 64 1004.4
20260509173017 65 225 9.0 15.0 0.00 0.43 0.21 67 1004.5
20260509172017 65 225 9.0 17.0 0.00 0.43 0.21 66 1004.5
20260509171017 64 225 12.0 18.0 0.00 0.43 0.21 66 1004.6